TimeEDT,TemperatureF,Dew PointF,Humidity,Sea Level PressureIn,VisibilityMPH,Wind Direction,Wind SpeedMPH,Gust SpeedMPH,PrecipitationIn,Events,Conditions,WindDirDegrees,DateUTC
12:54 AM,54.0,51.1,90,29.83,10.0,Calm,Calm,-,N/A,,Mostly Cloudy,0,2013-03-17 04:54:00
1:29 AM,51.8,50.0,94,29.85,2.5,North,17.3,20.7,N/A,,Partly Cloudy,10,2013-03-17 05:29:00
1:36 AM,53.6,51.8,94,29.85,4.0,NE,6.9,20.7,N/A,,Partly Cloudy,40,2013-03-17 05:36:00
1:54 AM,53.1,52.0,96,29.86,7.0,North,8.1,-,N/A,,Clear,10,2013-03-17 05:54:00
2:29 AM,53.6,51.8,94,29.88,5.0,North,11.5,-,N/A,,Scattered Clouds,10,2013-03-17 06:29:00
2:38 AM,53.6,51.8,94,29.89,4.0,North,12.7,-,N/A,,Mostly Cloudy,10,2013-03-17 06:38:00
2:49 AM,53.6,51.8,94,29.89,2.5,North,11.5,20.7,N/A,,Overcast,10,2013-03-17 06:49:00
2:54 AM,53.1,52.0,96,29.90,2.0,North,15.0,-,N/A,,Overcast,10,2013-03-17 06:54:00
3:05 AM,51.8,51.8,100,29.90,1.8,North,13.8,-,N/A,,Overcast,10,2013-03-17 07:05:00
3:13 AM,51.8,50.0,94,29.90,2.5,NNE,12.7,-,N/A,,Overcast,20,2013-03-17 07:13:00
3:25 AM,50.0,48.2,94,29.91,3.0,NNE,15.0,-,N/A,,Overcast,30,2013-03-17 07:25:00
3:54 AM,46.9,46.0,97,29.92,3.0,NNE,13.8,-,0.01,,Overcast,30,2013-03-17 07:54:00
4:03 AM,46.4,46.4,100,29.93,3.0,NNE,13.8,-,N/A,,Overcast,30,2013-03-17 08:03:00
4:13 AM,46.4,46.4,100,29.93,2.5,NNE,10.4,-,N/A,,Overcast,30,2013-03-17 08:13:00
4:28 AM,46.4,46.4,100,29.93,3.0,NNE,10.4,-,N/A,,Overcast,30,2013-03-17 08:28:00
4:44 AM,46.4,44.6,93,29.94,6.0,NNE,11.5,-,N/A,,Overcast,30,2013-03-17 08:44:00
4:54 AM,46.9,45.0,93,29.94,8.0,NE,12.7,-,N/A,,Overcast,40,2013-03-17 08:54:00
5:02 AM,46.4,44.6,93,29.95,9.0,NNE,15.0,-,N/A,,Overcast,30,2013-03-17 09:02:00
5:18 AM,44.6,42.8,93,29.95,9.0,NNE,10.4,-,N/A,,Mostly Cloudy,30,2013-03-17 09:18:00
5:40 AM,44.6,42.8,93,29.96,9.0,NNE,11.5,-,N/A,,Mostly Cloudy,30,2013-03-17 09:40:00
5:49 AM,44.6,42.8,93,29.97,10.0,NE,13.8,-,N/A,,Scattered Clouds,40,2013-03-17 09:49:00
5:54 AM,45.0,42.1,90,29.97,10.0,NE,12.7,-,N/A,,Partly Cloudy,40,2013-03-17 09:54:00
6:24 AM,44.6,42.8,93,29.99,8.0,NNE,9.2,-,N/A,,Mostly Cloudy,30,2013-03-17 10:24:00
6:54 AM,44.1,42.1,93,29.99,8.0,NNE,11.5,-,N/A,,Mostly Cloudy,30,2013-03-17 10:54:00
7:54 AM,44.1,42.1,93,30.01,6.0,NE,15.0,-,N/A,,Overcast,40,2013-03-17 11:54:00
8:54 AM,44.1,41.0,89,30.04,8.0,NNE,15.0,-,N/A,,Overcast,30,2013-03-17 12:54:00
9:54 AM,45.0,42.1,90,30.06,7.0,NNE,13.8,-,N/A,,Overcast,30,2013-03-17 13:54:00
10:49 AM,44.6,41.0,87,30.08,10.0,NE,11.5,-,N/A,,Overcast,40,2013-03-17 14:49:00
10:54 AM,45.0,41.0,86,30.09,10.0,NE,11.5,-,N/A,,Overcast,40,2013-03-17 14:54:00
11:54 AM,45.0,39.9,82,30.13,10.0,NE,11.5,-,N/A,,Overcast,40,2013-03-17 15:54:00
12:54 PM,45.0,39.9,82,30.14,10.0,NNE,16.1,-,N/A,,Overcast,30,2013-03-17 16:54:00
1:37 PM,46.4,39.2,76,30.12,10.0,NNE,18.4,-,N/A,,Overcast,30,2013-03-17 17:37:00
1:52 PM,44.6,39.2,81,30.12,10.0,NNE,17.3,-,N/A,,Overcast,30,2013-03-17 17:52:00
1:54 PM,45.0,39.0,80,30.12,10.0,NNE,16.1,-,N/A,,Overcast,30,2013-03-17 17:54:00
2:28 PM,44.6,37.4,76,30.12,10.0,NNE,13.8,-,N/A,,Overcast,30,2013-03-17 18:28:00
2:47 PM,44.6,37.4,76,30.12,10.0,NNE,16.1,-,N/A,,Overcast,20,2013-03-17 18:47:00
2:54 PM,45.0,37.9,76,30.12,10.0,NNE,13.8,-,N/A,,Overcast,30,2013-03-17 18:54:00
3:54 PM,45.0,37.9,76,30.11,10.0,NE,18.4,-,N/A,,Overcast,40,2013-03-17 19:54:00
4:54 PM,43.0,37.0,80,30.11,10.0,NE,18.4,-,N/A,,Overcast,40,2013-03-17 20:54:00
5:01 PM,42.8,37.4,81,30.11,10.0,NNE,16.1,-,N/A,,Overcast,30,2013-03-17 21:01:00
5:54 PM,42.1,36.0,79,30.14,10.0,NNE,17.3,-,N/A,,Overcast,20,2013-03-17 21:54:00
6:29 PM,42.8,35.6,76,30.16,10.0,NNE,12.7,-,N/A,,Overcast,30,2013-03-17 22:29:00
6:36 PM,42.8,35.6,76,30.16,10.0,NE,13.8,-,N/A,,Overcast,40,2013-03-17 22:36:00
6:54 PM,42.1,36.0,79,30.17,10.0,NNE,13.8,-,N/A,,Overcast,30,2013-03-17 22:54:00
7:23 PM,41.0,35.6,81,30.18,8.0,NE,17.3,-,N/A,,Overcast,40,2013-03-17 23:23:00
7:52 PM,41.0,37.4,87,30.19,8.0,NE,15.0,-,N/A,,Overcast,50,2013-03-17 23:52:00
7:54 PM,41.0,37.0,86,30.19,8.0,NE,16.1,-,N/A,,Overcast,40,2013-03-17 23:54:00
8:54 PM,41.0,37.0,86,30.21,10.0,NE,17.3,-,N/A,,Overcast,40,2013-03-18 00:54:00
9:54 PM,41.0,37.0,86,30.20,10.0,NE,16.1,26.5,N/A,,Overcast,50,2013-03-18 01:54:00
10:54 PM,42.1,36.0,79,30.22,10.0,NE,16.1,-,N/A,,Overcast,50,2013-03-18 02:54:00
11:54 PM,42.1,36.0,79,30.23,10.0,NE,15.0,-,0.00,Rain,Light Rain,40,2013-03-18 03:54:00